Price, UT

5:48 AM MST on January 18, 2018 (GMT -0700)
Carbon County

Weather History for KPUC - August, 2014

Change the Weather History Date:

Thursday, August 21, 2014

  Actual Average Record
Temperature  
Mean Temperature 66 °F -  
Max Temperature 79 °F 82 °F 96 °F (1982)
Min Temperature 53 °F 56 °F 49 °F (1975)
Cooling Degree Days 1    
Growing Degree Days 16 (Base 50)    
Moisture  
Dew Point 45 °F    
Average Humidity 49    
Maximum Humidity 80    
Minimum Humidity 27    
Precipitation  
Precipitation 0.00 in - - ()
Sea Level Pressure  
Sea Level Pressure 30.00 in    
Wind  
Wind Speed 6 mph (East)    
Max Wind Speed 15 mph    
Max Gust Speed 21 mph    
Visibility 10 miles    
Events Thunderstorm    
Averages and records for this station are not official NWS values.
T = Trace of Precipitation, MM = Missing Value Source: NWS Daily Summary

Daily Weather History Graph

Daily Weather History Graph

Search for Another Location

Airport or City:

Trip Planner

Search our weather history database for the weather conditions in past years. The results will help you decide how hot, cold, wet, or windy it might be!

Date:

Astronomy

Aug. 21, 2014 Rise Set
Actual Time 6:41 AM MDT 8:10 PM MDT
Civil Twilight 6:12 AM MDT 8:38 PM MDT
Nautical Twilight 5:38 AM MDT 9:12 PM MDT
Astronomical Twilight 5:02 AM MDT 9:48 PM MDT
Moon 3:14 AM MDT (8/21) 5:41 PM MDT (8/21)
Length of Visible Light 14h 26m
Length of Day
13h 29m
Waning Crescent, 13% of the Moon is Illuminated
Aug 21
Waning Crescent
Aug 25
New
Sep 2
First Quarter
Sep 8
Full
Sep 15
Last Quarter

Hourly Weather History & Observations

Time (MDT) Temp. Dew Point Humidity Pressure Visibility Wind Dir Wind Speed Gust Speed Precip Events Conditions
12:53 AM 57.0 °F 48.9 °F 74% 29.97 in 10.0 mi North 9.2 mph - N/A   Clear
1:53 AM 57.0 °F 48.0 °F 72% 29.96 in 10.0 mi NNE 6.9 mph - N/A   Clear
2:53 AM 55.9 °F 48.9 °F 77% 29.97 in 10.0 mi NE 5.8 mph - N/A   Clear
3:53 AM 55.9 °F 46.9 °F 72% 29.96 in 10.0 mi Calm Calm - N/A   Clear
4:53 AM 54.0 °F 46.9 °F 77% 30.00 in 10.0 mi North 8.1 mph - N/A   Clear
5:53 AM 53.1 °F 46.9 °F 80% 29.99 in 10.0 mi NE 5.8 mph - N/A   Clear
6:53 AM 55.0 °F 46.0 °F 72% 30.01 in 10.0 mi Calm Calm - N/A   Clear
7:53 AM 61.0 °F 48.0 °F 62% 30.01 in 10.0 mi Calm Calm - N/A   Clear
8:53 AM 63.0 °F 48.0 °F 58% 30.03 in 10.0 mi Calm Calm - N/A   Clear
9:53 AM 66.9 °F 48.0 °F 51% 30.01 in 10.0 mi Calm Calm - N/A   Clear
10:53 AM 69.1 °F 48.0 °F 47% 30.03 in 10.0 mi ESE 5.8 mph - N/A   Clear
11:53 AM 71.6 °F 44.6 °F 38% 30.20 in 10.0 mi Variable 5.8 mph - N/A   Clear
12:53 PM 73.0 °F 46.0 °F 38% 30.01 in 10.0 mi South 10.4 mph - N/A   Clear
1:53 PM 75.0 °F 44.1 °F 33% 29.98 in 10.0 mi SSW 8.1 mph - N/A   Clear
2:53 PM 77.0 °F 42.1 °F 29% 29.96 in 10.0 mi Calm Calm - N/A   Clear
3:53 PM 77.0 °F 42.1 °F 29% 29.95 in 10.0 mi Variable 3.5 mph - N/A   Partly Cloudy
4:53 PM 79.0 °F 42.1 °F 27% 29.93 in 10.0 mi East 5.8 mph - N/A   Scattered Clouds
5:53 PM 78.1 °F 42.1 °F 28% 29.94 in 10.0 mi ESE 9.2 mph - N/A   Scattered Clouds
6:53 PM 73.9 °F 45.0 °F 35% 29.94 in 10.0 mi ENE 6.9 mph - 0.00 in   Scattered Clouds
7:53 PM 73.9 °F 41.0 °F 30% 29.91 in 10.0 mi ESE 12.7 mph - N/A   Mostly Cloudy
8:21 PM 73.0 °F 42.1 °F 33% 30.14 in 10.0 mi Calm Calm - N/A Thunderstorm Thunderstorm
8:39 PM 70.0 °F 46.0 °F 42% 30.15 in 10.0 mi North 15.0 mph 20.7 mph N/A   Overcast
8:53 PM 71.1 °F 43.0 °F 36% 29.95 in 10.0 mi Variable 6.9 mph - N/A   Overcast
9:53 PM 70.0 °F 43.0 °F 38% 29.95 in 10.0 mi SSE 5.8 mph - N/A   Mostly Cloudy
10:53 PM 68.0 °F 42.8 °F 40% 30.16 in 10.0 mi ESE 4.6 mph - N/A   Mostly Cloudy
11:53 PM 66.0 °F 43.0 °F 43% 29.93 in 10.0 mi East 6.9 mph - N/A   Mostly Cloudy